Location: Observatoire de l'Aigle
(47.0607°N, 71.3152°W)
Time: 17:50:37
(UTC-04:00)

Amateur Radio Satellites - All Passes

Search period start: 23 September 2017 17:20
Search period end: 24 September 2017 17:20
Location: Observatoire de l'Aigle, 47.0607°N, 71.3152°W

Satellite Date Start Highest point End Downlink Frequencies (MHz)
Time Altitude Azimuth
LilacSat-2 23 Sep 17:24:06 17:27:43 38° 70° (ENE) 17:31:21 437.200
NO-84 23 Sep 17:35:12 17:37:49 21° 8° (N) 17:40:17 435.350 FM
KAITUO 1B 23 Sep 17:42:53 17:46:30 43° 71° (ENE) 17:50:08 145.475/437.950
CUTE 1.7 + AOD 2 23 Sep 17:44:24 17:46:57 16° 61° (ENE) 17:49:30 437.475
MOZHAYETS 4 23 Sep 17:51:03 17:53:32 14° 302° (WNW) 17:56:01
PCSat 23 Sep 17:55:59 17:58:47 14° 335° (NNW) 18:01:35 145.827
KKS-1 23 Sep 18:10:12 18:14:39 83° 288° (WNW) 18:19:07 437.445
HO-68 23 Sep 18:11:42 18:18:30 49° 64° (ENE) 18:25:20 435.675
CUBEBUG 2 23 Sep 18:12:00 18:14:50 17° 61° (ENE) 18:17:42 437.445
XW-2D 23 Sep 18:12:06 18:15:55 62° 258° (WSW) 18:19:46 145.860 - 145.880
CUBESAT XI-V 23 Sep 18:15:49 18:19:50 29° 294° (WNW) 18:23:47 437.345
UWE-3 23 Sep 18:20:03 18:22:06 13° 58° (ENE) 18:24:11 435.000/436.395/437.385
XW-2B 23 Sep 18:24:36 18:28:19 46° 261° (W) 18:32:03 145.730 - 145.750
XW-2F 23 Sep 18:24:40 18:28:23 48° 261° (W) 18:32:08 145.980 - 146.000
CUTE-I 23 Sep 18:30:00 18:35:15 61° 259° (W) 18:40:31 437.470
STARS 23 Sep 18:34:49 18:39:14 77° 102° (ESE) 18:43:39 437.465
DOVE 4 23 Sep 18:39:21 18:41:13 12° 271° (W) 18:43:03 437.250
XW-2C 23 Sep 18:46:31 18:49:48 26° 265° (W) 18:53:07 145.795 - 145.815
NUDT-PHONESAT 23 Sep 18:48:38 18:52:03 33° 263° (W) 18:55:30 437.300
SEEDS 23 Sep 18:50:24 18:54:24 42° 71° (ENE) 18:58:25 437.485
LilacSat-2 23 Sep 18:59:19 19:02:08 19° 268° (W) 19:04:57 437.200
AO-73 23 Sep 19:03:58 19:06:56 18° 61° (ENE) 19:09:57 145.935
XW-2A 23 Sep 19:04:02 19:07:13 37° 71° (ENE) 19:10:25 145.665 - 145.685
Oscar 11 23 Sep 19:04:11 19:06:16 13° 59° (ENE) 19:08:23 .
ZACube-1 23 Sep 19:06:25 19:09:40 21° 63° (ENE) 19:13:00 437.345
NO-84 23 Sep 19:12:35 19:15:42 58° 30° (NNE) 19:18:36 435.350 FM
AAUSAT CUBESAT 2 23 Sep 19:13:33 19:17:20 34° 69° (ENE) 19:21:06 437.432
CUTE 1.7 + AOD 2 23 Sep 19:18:03 19:22:18 64° 260° (W) 19:26:35 437.475
KAITUO 1B 23 Sep 19:18:16 19:20:42 16° 269° (W) 19:23:09 145.475/437.950
BEESAT 3 23 Sep 19:34:53 19:38:31 33° 118° (ESE) 19:42:11 437.485
Tancredo 1 23 Sep 19:39:07 19:41:28 27° 143° (SE) 19:43:49 437.200
STRAND 1 23 Sep 19:42:58 19:47:40 35° 96° (E) 19:52:22 437.568
BEESAT 2 23 Sep 19:43:51 19:46:00 14° 111° (ESE) 19:48:09 435.950
CUBEBUG 2 23 Sep 19:46:47 19:50:59 57° 260° (W) 19:55:21 437.445
KKS-1 23 Sep 19:49:03 19:50:29 11° 304° (NW) 19:51:55 437.445
UWE-3 23 Sep 19:53:34 19:57:53 82° 257° (WSW) 20:02:22 435.000/436.395/437.385
AO-85 23 Sep 19:58:17 20:01:06 19° 114° (ESE) 20:03:57 145.980
HO-68 23 Sep 19:59:48 20:06:23 38° 263° (W) 20:12:59 435.675
ISS 23 Sep 20:05:36 20:06:27 11° 132° (SE) 20:07:18 437.550
STARS 23 Sep 20:12:42 20:15:01 14° 301° (WNW) 20:17:19 437.465
Max Valier Satellite 23 Sep 20:14:57 20:15:37 10° 60° (ENE) 20:16:18 145.860
SEEDS 23 Sep 20:27:06 20:30:16 20° 268° (W) 20:33:27 437.485
Oscar 11 23 Sep 20:37:26 20:41:48 79° 258° (WSW) 20:46:11 .
XW-2A 23 Sep 20:38:02 20:40:06 15° 268° (W) 20:42:10 145.665 - 145.685
AO-73 23 Sep 20:38:27 20:42:43 57° 260° (W) 20:47:08 145.935
ZACube-1 23 Sep 20:41:26 20:45:37 47° 261° (W) 20:49:57 437.345
DELFI C3 23 Sep 20:42:31 20:45:55 28° 67° (ENE) 20:49:18 145.870
nSIGHT-1 23 Sep 20:42:56 20:45:35 24° 141° (SE) 20:48:17 .
AAUSAT CUBESAT 2 23 Sep 20:49:27 20:52:50 24° 266° (W) 20:56:14 437.432
NO-84 23 Sep 20:50:43 20:52:41 16° 229° (SW) 20:54:37 435.350 FM
BEESAT 3 23 Sep 21:12:25 21:16:04 32° 317° (NW) 21:19:45 437.485
EO-88 23 Sep 21:12:36 21:15:53 32° 69° (ENE) 21:19:12 145.990 - 145.960
Tancredo 1 23 Sep 21:13:13 21:15:51 49° 341° (NNW) 21:18:30 437.200
FO-29 23 Sep 21:14:53 21:19:48 32° 96° (E) 21:25:06 435.910
BEESAT 2 23 Sep 21:19:11 21:23:12 70° 309° (NW) 21:27:17 435.950
SO-50 23 Sep 21:19:16 21:23:04 25° 37° (NE) 21:26:55 436.795
STRAND 1 23 Sep 21:22:12 21:26:49 35° 295° (WNW) 21:31:27 437.568
PCSat 23 Sep 21:27:32 21:30:46 16° 28° (NNE) 21:33:59 145.827
YUBILEINY 23 Sep 21:28:46 21:34:27 18° 54° (NE) 21:40:06 435.215
AO-85 23 Sep 21:37:24 21:41:10 46° 313° (NW) 21:45:02 145.980
ISS 23 Sep 21:39:07 21:42:21 63° 150° (SSE) 21:45:37 437.550
Max Valier Satellite 23 Sep 21:45:08 21:48:51 78° 258° (WSW) 21:52:37 145.860
UNISAT 6 23 Sep 22:06:53 22:11:07 33° 96° (E) 22:15:22 437.425
LO-87 23 Sep 22:09:22 22:12:02 20° 66° (ENE) 22:14:42 145.935 - 145.965
DELFI C3 23 Sep 22:17:16 22:20:38 27° 265° (W) 22:24:01 145.870
nSIGHT-1 23 Sep 22:18:30 22:21:43 67° 338° (NNW) 22:24:57 .
TIGRISAT 23 Sep 22:30:21 22:34:55 51° 100° (E) 22:39:30 435.000
ESTCUBE 1 23 Sep 22:46:08 22:50:24 42° 69° (ENE) 22:54:40 437.505/2401.250
EO-88 23 Sep 22:46:51 22:49:36 20° 267° (W) 22:52:24 145.990 - 145.960
Tancredo 1 23 Sep 22:48:17 22:50:42 28° 1° (N) 22:53:07 437.200
SO-50 23 Sep 22:59:21 23:03:53 62° 237° (WSW) 23:08:27 436.795
BEESAT 2 23 Sep 22:59:22 23:01:41 15° 330° (NNW) 23:04:02 435.950
FO-29 23 Sep 22:59:58 23:04:59 41° 293° (WNW) 23:10:28 435.910
PRISM 23 Sep 23:03:03 23:07:06 61° 101° (ESE) 23:11:07 437.425
PCSat 23 Sep 23:10:03 23:15:25 54° 51° (NE) 23:20:43 145.827
SPROUT 23 Sep 23:13:49 23:17:03 22° 64° (ENE) 23:20:19 437.525
ISS 23 Sep 23:15:50 23:18:58 41° 349° (N) 23:22:08 437.550
VELOX 1 23 Sep 23:15:55 23:18:59 19° 61° (ENE) 23:22:02 145.980
AO-85 23 Sep 23:21:15 23:22:35 11° 336° (NNW) 23:23:56 145.980
AIST 2D 23 Sep 23:23:22 23:26:13 22° 94° (E) 23:29:01 435.315
YUBILEINY 23 Sep 23:24:17 23:33:02 73° 78° (ENE) 23:41:47 435.215
LO-87 23 Sep 23:42:09 23:45:17 30° 264° (W) 23:48:27 145.935 - 145.965
UNISAT 6 23 Sep 23:43:38 23:47:45 31° 293° (WNW) 23:51:53 437.425
NANOSAT C BR1 23 Sep 23:48:22 23:51:12 17° 91° (E) 23:54:01 145.865
nSIGHT-1 23 Sep 23:55:21 23:58:24 35° 359° (N) 00:01:25 .
TIGRISAT 24 Sep 00:07:44 00:11:16 22° 297° (WNW) 00:14:49 435.000
DUCHIFAT 1 24 Sep 00:16:04 00:19:47 28° 95° (E) 00:23:28 145.980
UKube-1 24 Sep 00:17:31 00:20:00 15° 59° (ENE) 00:22:30 .
Tancredo 1 24 Sep 00:22:51 00:25:31 58° 21° (NNE) 00:28:11 437.200
DX 1 24 Sep 00:23:35 00:27:07 25° 64° (ENE) 00:30:39 434.975-435.025
ESTCUBE 1 24 Sep 00:23:44 00:27:22 23° 267° (W) 00:30:59 437.505/2401.250
POLYITAN 1 24 Sep 00:29:48 00:34:00 49° 99° (E) 00:38:10 437.675
EO-79 24 Sep 00:34:01 00:38:15 55° 101° (E) 00:42:26 145.935-145.965
PRISM 24 Sep 00:39:37 00:41:55 15° 299° (WNW) 00:44:12 437.425
M-CUBED/EXP-1 PRIME 24 Sep 00:42:12 00:42:40 10° 95° (E) 00:43:10 437.505
QB50P2 24 Sep 00:47:41 00:51:59 84° 101° (E) 00:56:17 145.880/145.840
SPROUT 24 Sep 00:48:41 00:52:42 42° 262° (W) 00:56:46 437.525
VELOX 1 24 Sep 00:50:44 00:55:02 54° 259° (W) 00:59:22 145.980
BUGSAT 1 24 Sep 00:51:02 00:54:05 19° 92° (E) 00:57:08 437.445
ISS 24 Sep 00:52:46 00:55:54 39° 9° (N) 00:59:02 437.550
PCSat 24 Sep 00:54:00 00:58:30 27° 250° (WSW) 01:02:58 145.827
AIST 2D 24 Sep 00:56:23 00:59:23 26° 292° (WNW) 01:02:21 435.315
50 SAT 24 Sep 01:03:41 01:07:00 76° 74° (ENE) 01:10:19 437.505
YUBILEINY 24 Sep 01:22:05 01:29:02 28° 280° (W) 01:35:59 435.215
NANOSAT C BR1 24 Sep 01:23:03 01:27:11 51° 289° (WNW) 01:31:20 145.865
nSIGHT-1 24 Sep 01:31:54 01:35:06 54° 18° (NNE) 01:38:19 .
MOZHAYETS 4 24 Sep 01:42:10 01:44:49 15° 59° (ENE) 01:47:29
UKube-1 24 Sep 01:51:15 01:55:31 67° 257° (WSW) 01:59:49 .
DUCHIFAT 1 24 Sep 01:51:41 01:55:25 30° 293° (WNW) 01:59:10 145.980
Gurwin Techsat 1B 24 Sep 01:55:05 01:59:43 29° 95° (E) 02:04:18 435.225
Tancredo 1 24 Sep 01:57:40 01:59:49 22° 219° (SW) 02:01:59 437.200
DX 1 24 Sep 01:59:07 02:03:09 37° 262° (W) 02:07:11 434.975-435.025
POLYITAN 1 24 Sep 02:06:22 02:09:26 19° 297° (WNW) 02:12:29 437.675
Oscar 19 24 Sep 02:07:51 02:12:55 53° 100° (E) 02:17:56 437.125/150
EO-79 24 Sep 02:10:45 02:13:36 18° 298° (WNW) 02:16:27 145.935-145.965
BEESAT 3 24 Sep 02:12:10 02:13:56 12° 27° (NNE) 02:15:41 437.485
ITUPSAT 1 24 Sep 02:12:15 02:16:21 29° 64° (ENE) 02:20:29 437.325
M-CUBED/EXP-1 PRIME 24 Sep 02:14:14 02:17:31 51° 293° (WNW) 02:20:41 437.505
QB50P2 24 Sep 02:25:21 02:27:08 12° 302° (WNW) 02:28:55 145.880/145.840
BUGSAT 1 24 Sep 02:25:37 02:29:38 45° 290° (WNW) 02:33:40 437.445
ISS 24 Sep 02:29:15 02:32:34 73° 208° (SSW) 02:35:50 437.550
AO-85 24 Sep 02:45:31 02:47:28 13° 27° (NNE) 02:49:26 145.980
O/OREOS (USA 219) 24 Sep 02:47:36 02:52:06 86° 117° (ESE) 02:56:41 437.305
BEESAT 24 Sep 02:48:00 02:52:41 62° 71° (ENE) 02:57:25 436.000
AO-7 24 Sep 02:50:10 02:55:36 19° 88° (E) 03:00:59 .
nSIGHT-1 24 Sep 03:08:22 03:11:21 33° 217° (SW) 03:14:19 .
ITAMSAT 1 24 Sep 03:14:30 03:17:44 16° 89° (E) 03:20:57 435.822/435.867
MOZHAYETS 4 24 Sep 03:16:45 03:21:22 76° 257° (WSW) 03:26:02
Gurwin Techsat 1B 24 Sep 03:34:47 03:39:47 43° 293° (WNW) 03:44:47 435.225
KKS-1 24 Sep 03:36:20 03:39:10 17° 60° (ENE) 03:42:01 437.445
CUBESAT XI-V 24 Sep 03:44:03 03:48:34 48° 70° (ENE) 03:53:05 437.345
Oscar 19 24 Sep 03:47:48 03:51:55 24° 299° (WNW) 03:55:59 437.125/150
BEESAT 3 24 Sep 03:48:26 03:52:23 54° 49° (NE) 03:56:15 437.485
ITUPSAT 1 24 Sep 03:49:38 03:54:03 37° 263° (W) 03:58:32 437.325
BEESAT 2 24 Sep 03:56:41 04:00:12 27° 41° (NE) 04:03:40 435.950
STARS 24 Sep 04:00:39 04:02:37 13° 58° (ENE) 04:04:36 437.465
RS-15 24 Sep 04:01:32 04:11:05 28° 101° (E) 04:20:39 29.354- 29.394
ISS 24 Sep 04:06:56 04:08:33 13° 226° (SW) 04:10:08 437.550
AO-85 24 Sep 04:24:35 04:28:49 49° 48° (NE) 04:33:21 145.980
BEESAT 24 Sep 04:27:44 04:30:52 17° 269° (W) 04:34:02 436.000
O/OREOS (USA 219) 24 Sep 04:29:29 04:32:12 15° 315° (NW) 04:34:55 437.305
AO-7 24 Sep 04:41:16 04:49:37 82° 108° (ESE) 04:57:55 .
ITAMSAT 1 24 Sep 04:52:33 04:57:46 74° 287° (WNW) 05:02:57 435.822/435.867
DOVE 4 24 Sep 04:55:14 04:57:26 14° 90° (E) 04:59:38 437.250
KKS-1 24 Sep 05:10:54 05:15:17 62° 259° (WSW) 05:19:41 437.445
CUBESAT XI-V 24 Sep 05:22:34 05:26:10 21° 268° (W) 05:29:47 437.345
STRAND 1 24 Sep 05:26:50 05:28:28 11° 53° (NE) 05:30:04 437.568
BEESAT 3 24 Sep 05:26:51 05:29:33 18° 248° (WSW) 05:32:13 437.485
STARS 24 Sep 05:33:58 05:38:19 83° 256° (WSW) 05:42:43 437.465
BEESAT 2 24 Sep 05:34:14 05:38:05 42° 240° (WSW) 05:41:53 435.950
XW-2D 24 Sep 05:43:34 05:44:46 11° 88° (E) 05:45:58 145.860 - 145.880
XW-2F 24 Sep 05:54:51 05:56:52 14° 90° (E) 05:58:52 145.980 - 146.000
XW-2B 24 Sep 05:55:04 05:57:16 15° 90° (E) 05:59:28 145.730 - 145.750
AO-85 24 Sep 06:05:22 06:09:02 25° 244° (WSW) 06:12:54 145.980
RS-15 24 Sep 06:09:38 06:21:59 87° 125° (SE) 06:34:20 29.354- 29.394
XW-2C 24 Sep 06:15:40 06:18:52 25° 94° (E) 06:22:02 145.795 - 145.815
NUDT-PHONESAT 24 Sep 06:16:07 06:18:46 18° 92° (E) 06:21:23 437.300
LilacSat-2 24 Sep 06:28:16 06:31:51 36° 97° (E) 06:35:24 437.200
DOVE 4 24 Sep 06:31:20 06:35:31 63° 287° (WNW) 06:39:51 437.250
ITAMSAT 1 24 Sep 06:34:04 06:36:21 13° 307° (NW) 06:38:39 435.822/435.867
AO-7 24 Sep 06:34:51 06:41:36 29° 310° (NW) 06:48:21 .
CUTE-I 24 Sep 06:43:49 06:48:53 42° 98° (E) 06:53:56 437.470
KAITUO 1B 24 Sep 06:44:43 06:48:16 39° 98° (E) 06:51:46 145.475/437.950
CUTE 1.7 + AOD 2 24 Sep 07:00:39 07:03:34 18° 91° (E) 07:06:29 437.475
STRAND 1 24 Sep 07:01:39 07:06:41 68° 72° (ENE) 07:11:47 437.568
XW-2D 24 Sep 07:15:35 07:19:22 64° 286° (WNW) 07:23:07 145.860 - 145.880
HO-68 24 Sep 07:23:21 07:29:58 38° 96° (E) 07:36:34 435.675
XW-2F 24 Sep 07:27:35 07:31:18 50° 287° (WNW) 07:34:57 145.980 - 146.000
XW-2B 24 Sep 07:28:02 07:31:44 47° 288° (WNW) 07:35:23 145.730 - 145.750
FO-29 24 Sep 07:32:22 07:36:10 20° 59° (ENE) 07:39:50 435.910
CUBEBUG 2 24 Sep 07:34:23 07:38:19 26° 93° (E) 07:42:16 437.445
UWE-3 24 Sep 07:40:42 07:43:56 18° 90° (E) 07:47:09 435.000/436.395/437.385
NUDT-PHONESAT 24 Sep 07:49:18 07:52:46 36° 290° (WNW) 07:56:11 437.300
XW-2C 24 Sep 07:49:45 07:53:02 28° 292° (WNW) 07:56:17 145.795 - 145.815
XW-2A 24 Sep 07:55:18 07:58:14 25° 95° (E) 08:01:07 145.665 - 145.685
LilacSat-2 24 Sep 08:03:03 08:05:54 20° 295° (WNW) 08:08:43 437.200
SEEDS 24 Sep 08:06:21 08:10:28 54° 100° (E) 08:14:33 437.485
KAITUO 1B 24 Sep 08:19:23 08:21:59 18° 296° (WNW) 08:24:34 145.475/437.950
Oscar 11 24 Sep 08:22:43 08:25:23 16° 90° (E) 08:28:01 .
AO-73 24 Sep 08:23:33 08:27:17 24° 93° (E) 08:30:56 145.935
CUTE-I 24 Sep 08:24:10 08:28:47 31° 297° (WNW) 08:33:24 437.470
RS-15 24 Sep 08:24:28 08:36:04 43° 333° (NNW) 08:47:32 29.354- 29.394
ZACube-1 24 Sep 08:26:35 08:30:33 28° 94° (E) 08:34:30 437.345
AAUSAT CUBESAT 2 24 Sep 08:27:26 08:31:21 41° 98° (E) 08:35:14 437.432
CUTE 1.7 + AOD 2 24 Sep 08:35:35 08:39:40 47° 289° (WNW) 08:43:43 437.475
STRAND 1 24 Sep 08:43:01 08:46:22 17° 270° (W) 08:49:44 437.568
UNISAT 6 24 Sep 09:08:28 09:12:32 39° 69° (ENE) 09:16:42 437.425
CUBEBUG 2 24 Sep 09:10:38 09:15:02 41° 291° (WNW) 09:19:28 437.445
HO-68 24 Sep 09:11:00 09:17:52 50° 296° (WNW) 09:24:43 435.675
FO-29 24 Sep 09:15:17 09:20:53 67° 258° (WSW) 09:26:07 435.910
UWE-3 24 Sep 09:16:08 09:20:43 57° 288° (WNW) 09:25:18 435.000/436.395/437.385
XW-2A 24 Sep 09:28:07 09:30:51 22° 293° (WNW) 09:33:32 145.665 - 145.685
TIGRISAT 24 Sep 09:31:42 09:35:59 61° 73° (ENE) 09:40:25 435.000
SEEDS 24 Sep 09:43:02 09:45:45 17° 298° (WNW) 09:48:28 437.485
DELFI C3 24 Sep 09:50:32 09:53:58 28° 96° (E) 09:57:22 145.870
PRISM 24 Sep 09:54:43 09:58:46 65° 73° (ENE) 10:02:49 437.425
Oscar 11 24 Sep 09:57:36 10:01:53 57° 287° (WNW) 10:06:07 .
AO-73 24 Sep 09:59:19 10:03:38 42° 291° (WNW) 10:07:55 145.935
AIST 2D 24 Sep 10:01:12 10:03:14 15° 64° (ENE) 10:05:15 435.315
ZACube-1 24 Sep 10:02:40 10:06:51 35° 292° (WNW) 10:11:01 437.345
AAUSAT CUBESAT 2 24 Sep 10:03:29 10:06:33 20° 296° (WNW) 10:09:36 437.432
QB50P2 24 Sep 10:10:25 10:11:49 11° 58° (ENE) 10:13:13 145.880/145.840
EO-88 24 Sep 10:11:36 10:14:45 27° 95° (E) 10:17:54 145.990 - 145.960
YUBILEINY 24 Sep 10:37:03 10:41:55 17° 73° (ENE) 10:46:47 435.215
RS-15 24 Sep 10:41:46 10:52:38 34° 7° (N) 11:03:08 29.354- 29.394
NANOSAT C BR1 24 Sep 10:43:18 10:46:17 19° 63° (ENE) 10:49:18 145.865
Max Valier Satellite 24 Sep 10:45:37 10:49:24 86° 279° (W) 10:53:07 145.860
UNISAT 6 24 Sep 10:45:53 10:49:23 23° 267° (W) 10:52:59 437.425
HO-68 24 Sep 11:01:07 11:03:58 13° 318° (NW) 11:06:50 435.675
LO-87 24 Sep 11:06:13 11:08:35 16° 92° (E) 11:10:57 145.935 - 145.965
DUCHIFAT 1 24 Sep 11:10:30 11:14:11 31° 67° (ENE) 11:17:54 145.980
TIGRISAT 24 Sep 11:10:35 11:13:08 15° 271° (W) 11:15:43 435.000
O/OREOS (USA 219) 24 Sep 11:15:31 11:19:46 36° 56° (NE) 11:24:01 437.305
POLYITAN 1 24 Sep 11:24:51 11:28:57 53° 72° (ENE) 11:33:06 437.675
DELFI C3 24 Sep 11:25:22 11:28:39 26° 293° (WNW) 11:31:53 145.870
M-CUBED/EXP-1 PRIME 24 Sep 11:28:08 11:31:49 31° 63° (ENE) 11:35:16 437.505
EO-79 24 Sep 11:28:54 11:33:01 59° 73° (ENE) 11:37:13 145.935-145.965
PRISM 24 Sep 11:32:38 11:34:27 13° 270° (W) 11:36:18 437.425
AIST 2D 24 Sep 11:32:38 11:36:03 45° 261° (W) 11:39:30 435.315
QB50P2 24 Sep 11:42:42 11:46:55 90° 256° (WSW) 11:51:11 145.880/145.840
BUGSAT 1 24 Sep 11:43:44 11:46:41 20° 63° (ENE) 11:49:40 437.445
Gurwin Techsat 1B 24 Sep 11:43:49 11:45:16 11° 51° (NE) 11:46:43 435.225
EO-88 24 Sep 11:45:20 11:48:19 24° 293° (WNW) 11:51:18 145.990 - 145.960
Oscar 19 24 Sep 11:50:45 11:54:05 17° 57° (ENE) 11:57:24 437.125/150
AO-7 24 Sep 12:06:27 12:08:57 12° 31° (NNE) 12:11:26 .
NO-84 24 Sep 12:08:27 12:10:44 15° 130° (SE) 12:12:55 435.350 FM
ESTCUBE 1 24 Sep 12:11:48 12:16:16 60° 101° (E) 12:20:42 437.505/2401.250
NANOSAT C BR1 24 Sep 12:17:38 12:21:40 47° 261° (W) 12:25:46 145.865
YUBILEINY 24 Sep 12:28:29 12:37:08 75° 95° (E) 12:45:49 435.215
SPROUT 24 Sep 12:31:12 12:34:48 25° 94° (E) 12:38:23 437.525
VELOX 1 24 Sep 12:37:58 12:41:25 22° 93° (E) 12:44:51 145.980
LO-87 24 Sep 12:38:47 12:42:09 37° 289° (WNW) 12:45:31 145.935 - 145.965
DUCHIFAT 1 24 Sep 12:46:15 12:49:50 27° 265° (W) 12:53:27 145.980
O/OREOS (USA 219) 24 Sep 12:55:06 12:59:05 29° 255° (WSW) 13:03:04 437.305
RS-15 24 Sep 12:56:26 13:08:24 57° 39° (NE) 13:19:44 29.354- 29.394
POLYITAN 1 24 Sep 13:02:26 13:05:04 16° 270° (W) 13:07:44 437.675
M-CUBED/EXP-1 PRIME 24 Sep 13:02:33 13:06:12 28° 258° (WSW) 13:09:40 437.505
EO-79 24 Sep 13:06:50 13:09:11 15° 270° (W) 13:11:33 145.935-145.965
SO-50 24 Sep 13:17:22 13:20:38 20° 113° (ESE) 13:23:54 436.795
BUGSAT 1 24 Sep 13:17:57 13:21:46 42° 261° (W) 13:25:40 437.445
Gurwin Techsat 1B 24 Sep 13:18:57 13:24:11 62° 71° (ENE) 13:29:26 435.225
Oscar 19 24 Sep 13:27:33 13:32:46 80° 257° (WSW) 13:38:01 437.125/150
UKube-1 24 Sep 13:36:10 13:38:49 16° 91° (E) 13:41:27 .
NO-84 24 Sep 13:43:58 13:47:46 89° 145° (SE) 13:51:16 435.350 FM
DX 1 24 Sep 13:43:59 13:47:46 28° 96° (E) 13:51:30 434.975-435.025
ESTCUBE 1 24 Sep 13:49:38 13:52:38 18° 299° (WNW) 13:55:37 437.505/2401.250
AO-7 24 Sep 13:51:57 13:59:23 38° 55° (NE) 14:06:48 .
50 SAT 24 Sep 13:53:15 13:56:27 43° 100° (E) 13:59:37 437.505
PCSat 24 Sep 13:55:35 13:59:56 25° 109° (ESE) 14:04:19 145.827
SPROUT 24 Sep 14:06:51 14:10:44 34° 292° (WNW) 14:14:37 437.525
VELOX 1 24 Sep 14:13:53 14:18:02 41° 291° (WNW) 14:22:09 145.980
YUBILEINY 24 Sep 14:27:38 14:34:51 28° 298° (WNW) 14:42:07 435.215
ITAMSAT 1 24 Sep 14:34:52 14:39:30 35° 65° (ENE) 14:44:10 435.822/435.867
BEESAT 24 Sep 14:46:56 14:48:51 12° 88° (E) 14:50:46 436.000
SO-50 24 Sep 14:56:15 15:00:41 59° 311° (NW) 15:05:10 436.795
Gurwin Techsat 1B 24 Sep 15:00:40 15:04:33 20° 269° (W) 15:08:27 435.225
MOZHAYETS 4 24 Sep 15:09:21 15:12:50 21° 92° (E) 15:16:17
RS-15 24 Sep 15:09:30 15:21:03 57° 246° (WSW) 15:32:00 29.354- 29.394
UKube-1 24 Sep 15:10:58 15:15:12 56° 288° (WNW) 15:19:24 .
Oscar 19 24 Sep 15:11:22 15:12:54 11° 274° (W) 15:14:28 437.125/150
DX 1 24 Sep 15:20:05 15:23:56 32° 293° (WNW) 15:27:46 434.975-435.025
NO-84 24 Sep 15:22:23 15:25:29 26° 344° (NNW) 15:28:21 435.350 FM
50 SAT 24 Sep 15:26:57 15:28:35 13° 297° (WNW) 15:30:12 437.505
PCSat 24 Sep 15:37:37 15:42:58 58° 308° (NW) 15:48:21 145.827
AO-7 24 Sep 15:43:35 15:51:48 61° 256° (WSW) 16:00:03 .
ITUPSAT 1 24 Sep 15:46:30 15:51:07 43° 99° (E) 15:55:41 437.325
DOVE 4 24 Sep 16:03:27 16:06:37 20° 64° (ENE) 16:09:43 437.250
ITAMSAT 1 24 Sep 16:14:14 16:18:57 35° 263° (W) 16:23:42 435.822/435.867
BEESAT 24 Sep 16:22:26 16:27:17 86° 283° (WNW) 16:32:04 436.000
CUTE-I 24 Sep 16:31:31 16:34:37 16° 56° (NE) 16:37:44 437.470
XW-2F 24 Sep 16:39:22 16:40:49 12° 60° (ENE) 16:42:16 145.980 - 146.000
SO-50 24 Sep 16:39:25 16:42:05 15° 333° (NNW) 16:44:46 436.795
XW-2B 24 Sep 16:39:54 16:41:36 13° 61° (ENE) 16:43:18 145.730 - 145.750
MOZHAYETS 4 24 Sep 16:45:45 16:50:15 49° 289° (WNW) 16:54:42
NUDT-PHONESAT 24 Sep 16:58:40 17:00:45 14° 62° (ENE) 17:02:50 437.300
KKS-1 24 Sep 16:59:18 17:02:35 20° 92° (E) 17:05:51 437.445
XW-2C 24 Sep 16:59:57 17:02:49 20° 65° (ENE) 17:05:42 145.795 - 145.815
NO-84 24 Sep 17:01:01 17:03:38 21° 5° (N) 17:06:05 435.350 FM
LilacSat-2 24 Sep 17:12:51 17:16:13 29° 68° (ENE) 17:19:36 437.200
